NOAA 16 DEB, 41370

Orbit data source: Space-Track

NOAA 16 DEB, 41370 is space debris in SSO originally from a launch on Thu, 21 Sep 2000 UTC launched from the Air Force Western Test Range (AFWTR). Debris objects in space refer to the collection of defunct objects orbiting the Earth. Examples of debris include non-operational satellites, rocket bodies, and fragments generated from explosions, collisions, or faulty payload assembly.

Not visible in the next 10 days
Identifier
41370, 2000-055JP
Orbit
SSO
Country
Flag of USUS
Related business
Manufacturer
Unknown
Mission
Spacecraft
Bus & Motor
Unknown
Mass
Unknown
Launch date (UTC)
2000-09-21 (26 years ago)
Launch vehicle
Unknown
Launch site
Air Force Western Test Range (AFWTR)
Object type
Payload
Rocket body
Debris
Shape & HBR
Unknown shape, 0.1 m
Radar Cross Section
Medium (>0.1 m² and <1 m²)

Expand to show TLE details & history
Last TLE update: 1 month ago

TLE from 1 month ago
0 NOAA 16 DEB
1 41370U 00055JP  26142.60492064  .00429796  00000-0  75741-2 0  9994
2 41370  98.8649  91.8055 0016156 161.9558 198.2265 15.48719110552263
Epoch: 2026-05-22T14:31Z
TLE epoch observation values (Epoch: 2026-05-22T14:31:05.143Z)
Latitude
-0°
Longitude
-6.1993°
Altitude
433.992 km
Speed
7.645 km/s
True Right ascension
06h 07m 13s
True Declination
0° 00' 00"
Sunlit
Object was in daylight at epoch
Visualization orbit readout
Latitude
Unknown
Longitude
Unknown
Altitude
Unknown
Speed
Unknown
Apparent Right ascension
Unknown
Apparent Declination
Unknown
Sunlit
N/A
Visualization observer readout
Local Sidereal Time
21:34:46
Azimuth
Unknown
Elevation
Unknown
Doppler factor
Unknown
Orbital elements
Apogee altitude
428.448 km
Perigee altitude
406.49 km
Semi-major axis
6,795.606 km
Eccentricity
0.00162
Inclination
98.8649°
RAAN
91.8055°
Arg. of periapsis
161.9558°
True anomaly
198.16871°
Mean anomaly
198.2265°
Eccentric anomaly
198.19759°
Mean motion
3.87437 °/min
Orbital period
92.92 mins
BSTAR
0.0075741
Loading maneuver chart data...
Computing Atmospheric mass density...
Loading historical data...
Loading historical data...
Loading historical data...
Loading historical data...
Loading historical data...
Loading historical data...
Loading historical data...

Documentation

Showing up to 5 results
|